Powrót do katalogu

SL-23 R/B

AktywnyMEO
NORAD 33059·ROCKET BODY·🇷🇺 Russia

Wystrzelony Apr 28, 2008 z Baikonur Cosmodrome

Loading…

Następne Przeloty (najbliższe 24 godziny)

TLE

ŚwieżeSource: Space-Track

Epoka: Sep 14, 2026, 12:18 UTC

1 33059U 08022B   26257.51299531 -.00000170  00000-0  00000-0 0  9998
2 33059  13.8582  31.7244 0542406  58.3123 130.5833  0.95533797 63823

Śledź SL-23 R/B w czasie rzeczywistym z AllMySat

Download on the App Store